Weather in Rangkul

Tajikistan     38°28′34″N   74°14′51″E
temp.,
°C
wind,
m/s
gust,
m/s
humid.,
%
clouds,
%
prec.,
mm/h
press.,
hPa
HPBL,
m
18 april, sun
sun1823:00−7nnw2268100 0.4 1020187
02:00−7nw1187100 0.1 1019222
05:00−8nw2291100 0.8 1019195
08:00−7wnw228399 0.6 1019385
11:00−4wnw1261100 0.7 1016961
14:00−2nw1247100 0.1 10131359
17:00−3wnw1252100 0.5 1015652
20:00−6nnw3359100 0.1 1020258
19 april, mon
mon1923:00−8nnw337376 0.2 1022208
02:00−9nnw227498 0.0 1022197
05:00−10nnw2273100 0.0 1024155
08:00−9nw116595 0.0 1023399
11:00−5wsw124936 0.0 10191104
14:00−3nw133958 0.1 10161933
17:00−3nw233633 0.1 10161517
20:00−8n21480 0.0 102277
20 april, tue
tue2023:00−11n215819 0.0 102683
02:00−13n106120 0.0 1028104
05:00−14n116371 0.0 103096
08:00−11wnw0154100 0.0 1026409
11:00−7sw1238100 0.0 1019689
14:00−3wsw133272 0.0 10141026
17:00−3sw143095 0.0 10121672
20:00−7ese1539100 0.0 1016431
21 april, wed
wed2123:00−11n1151100 0.0 101980
02:00−12nnw2155100 0.0 1020113
05:00−13nnw215786 0.0 1022105
08:00−9sw12520 0.0 1019422
11:00−5ssw234210 0.0 1014907
14:00−1sw25313 0.0 10081462
17:00−1sw811305 0.0 10061875
20:00−5ssw363785 0.0 1010799
22 april, thu
thu2223:00−8sw4104865 0.0 1012785
02:00−10wsw25558 0.0 1014360
05:00−11wnw24582 0.0 1015157
08:00−7w5114554 0.0 10111440
11:00−3w9132997 0.1 10093833
14:00−3wnw12173294 0.0 10093161
17:00−8nnw7155048 0.1 10171409
20:00−12nw33571 0.0 1025163